Location: Cuiry
(49.3858°N, 3.7708°E)
Time: 00:43:47
(UTC+00:00)

UNK - Pass Details

Date: 11 April 2026
Orbit: 653 x 673 km, 98.4° (Epoch: 19 May)

Event Time Altitude Azimuth Distance (km) Brightness Sun altitude
Rises 19:24:25 0° 357° (N) 3,019 7.5 -8.9°
Reaches altitude 10° 19:28:46 10° 317° (NW) 2,092 7.5 -9.6°
Maximum altitude 19:29:30 10° 308° (NW) 2,067 7.7 -9.7°
Drops below altitude 10° 19:30:13 10° 299° (WNW) 2,088 7.9 -9.8°
Sets 19:34:33 0° 259° (W) 2,988 8.0 -10.4°
